Time,TemperatureF,DewpointF,PressureIn,WindDirection,WindDirectionDegrees,WindSpeedMPH,WindSpeedGustMPH,Humidity,HourlyPrecipIn,Conditions,Clouds,dailyrainin,SoftwareType,DateUTC
2013-11-06 00:00:00,73.1,66.6,29.97,NNE,28,1.0,2.0,80,0.00,,,0.08,VWS V14.01,2013-11-06 10:00:00,
2013-11-06 00:05:00,72.8,65.9,29.97,NNW,335,4.0,4.0,79,0.00,,,0.00,VWS V14.01,2013-11-06 10:05:00,
2013-11-06 00:10:00,72.2,65.7,29.97,North,7,2.0,2.0,80,0.00,,,0.00,VWS V14.01,2013-11-06 10:10:00,
2013-11-06 00:15:00,72.0,65.9,29.97,North,9,5.0,5.0,81,0.00,,,0.00,VWS V14.01,2013-11-06 10:15:00,
2013-11-06 00:20:00,72.1,65.9,29.97,NNE,26,4.0,5.0,81,0.00,,,0.00,VWS V14.01,2013-11-06 10:20:00,
2013-11-06 00:25:00,72.3,66.5,29.97,North,4,3.0,4.0,82,0.00,,,0.00,VWS V14.01,2013-11-06 10:25:00,
2013-11-06 00:30:00,71.8,66.0,29.96,North,7,3.0,4.0,82,0.00,,,0.00,VWS V14.01,2013-11-06 10:30:00,
2013-11-06 00:35:00,72.0,66.2,29.96,NNE,19,2.0,2.0,82,0.00,,,0.00,VWS V14.01,2013-11-06 10:35:00,
2013-11-06 00:40:00,71.8,66.0,29.96,North,9,2.0,3.0,82,0.00,,,0.00,VWS V14.01,2013-11-06 10:40:00,
2013-11-06 00:46:00,71.5,66.1,29.96,NNW,345,4.0,4.0,83,0.00,,,0.00,VWS V14.01,2013-11-06 10:46:00,
2013-11-06 00:51:00,71.6,66.2,29.96,NNE,21,2.0,2.0,83,0.00,,,0.00,VWS V14.01,2013-11-06 10:51:00,
2013-11-06 00:56:00,71.3,65.9,29.96,North,8,2.0,3.0,83,0.00,,,0.00,VWS V14.01,2013-11-06 10:56:00,
2013-11-06 01:01:00,71.0,65.9,29.95,North,8,2.0,3.0,84,0.00,,,0.00,VWS V14.01,2013-11-06 11:01:00,
2013-11-06 01:06:00,70.7,66.0,29.96,NNE,16,3.0,3.0,85,0.00,,,0.00,VWS V14.01,2013-11-06 11:06:00,
2013-11-06 01:11:00,71.1,66.0,29.96,NNE,31,2.0,3.0,84,0.00,,,0.00,VWS V14.01,2013-11-06 11:11:00,
2013-11-06 01:16:00,71.4,66.3,29.96,NNE,17,2.0,3.0,84,0.00,,,0.00,VWS V14.01,2013-11-06 11:16:00,
2013-11-06 01:21:00,71.6,66.5,29.96,North,351,2.0,2.0,84,0.00,,,0.00,VWS V14.01,2013-11-06 11:21:00,
2013-11-06 01:26:00,71.3,66.2,29.95,NNE,25,3.0,3.0,84,0.00,,,0.00,VWS V14.01,2013-11-06 11:26:00,
2013-11-06 01:31:00,71.3,66.6,29.95,North,350,4.0,4.0,85,0.00,,,0.00,VWS V14.01,2013-11-06 11:31:00,
2013-11-06 01:36:00,71.5,66.8,29.95,NNE,14,4.0,4.0,85,0.00,,,0.00,VWS V14.01,2013-11-06 11:36:00,
2013-11-06 01:41:00,71.3,66.6,29.95,NNE,16,2.0,2.0,85,0.00,,,0.00,VWS V14.01,2013-11-06 11:41:00,
2013-11-06 01:46:00,71.1,66.7,29.95,NNE,29,3.0,4.0,86,0.00,,,0.00,VWS V14.01,2013-11-06 11:46:00,
2013-11-06 01:52:00,71.1,66.7,29.95,NNE,25,3.0,3.0,86,0.00,,,0.00,VWS V14.01,2013-11-06 11:52:00,
2013-11-06 01:57:00,71.2,66.1,29.95,NNE,26,2.0,2.0,84,0.00,,,0.00,VWS V14.01,2013-11-06 11:57:00,
2013-11-06 02:02:00,71.0,66.3,29.95,NNE,20,3.0,4.0,85,0.00,,,0.00,VWS V14.01,2013-11-06 12:02:00,
2013-11-06 02:07:00,71.4,66.3,29.95,NNE,33,2.0,3.0,84,0.00,,,0.00,VWS V14.01,2013-11-06 12:07:00,
2013-11-06 02:12:00,71.7,66.3,29.94,North,353,3.0,3.0,83,0.00,,,0.00,VWS V14.01,2013-11-06 12:12:00,
2013-11-06 02:17:00,71.5,66.1,29.95,NNE,14,3.0,4.0,83,0.00,,,0.00,VWS V14.01,2013-11-06 12:17:00,
2013-11-06 02:22:00,71.4,66.7,29.95,NNE,33,3.0,3.0,85,0.00,,,0.00,VWS V14.01,2013-11-06 12:22:00,
2013-11-06 02:27:00,71.3,66.6,29.95,North,9,2.0,2.0,85,0.00,,,0.00,VWS V14.01,2013-11-06 12:27:00,
2013-11-06 02:33:00,71.2,66.5,29.95,NNW,346,4.0,4.0,85,0.00,,,0.00,VWS V14.01,2013-11-06 12:33:00,
2013-11-06 02:38:00,71.2,66.8,29.94,North,357,4.0,4.0,86,0.00,,,0.00,VWS V14.01,2013-11-06 12:38:00,
2013-11-06 02:43:00,71.5,67.1,29.94,North,5,3.0,3.0,86,0.00,,,0.00,VWS V14.01,2013-11-06 12:43:00,
2013-11-06 02:48:00,71.7,67.3,29.94,NNW,341,3.0,4.0,86,0.00,,,0.00,VWS V14.01,2013-11-06 12:48:00,
2013-11-06 02:53:00,71.8,67.4,29.94,North,11,2.0,2.0,86,0.00,,,0.00,VWS V14.01,2013-11-06 12:53:00,
2013-11-06 02:58:00,71.6,67.2,29.94,North,7,3.0,4.0,86,0.00,,,0.00,VWS V14.01,2013-11-06 12:58:00,
2013-11-06 03:03:00,72.1,67.7,29.93,North,349,2.0,3.0,86,0.00,,,0.00,VWS V14.01,2013-11-06 13:03:00,
2013-11-06 03:08:00,72.1,67.7,29.93,NNW,338,4.0,4.0,86,0.00,,,0.00,VWS V14.01,2013-11-06 13:08:00,
2013-11-06 03:13:00,71.8,67.4,29.93,NNE,28,1.0,2.0,86,0.00,,,0.00,VWS V14.01,2013-11-06 13:13:00,
2013-11-06 03:19:00,71.6,67.2,29.93,NNE,28,3.0,3.0,86,0.00,,,0.00,VWS V14.01,2013-11-06 13:19:00,
2013-11-06 03:24:00,71.3,66.9,29.93,NE,54,3.0,4.0,86,0.00,,,0.00,VWS V14.01,2013-11-06 13:24:00,
2013-11-06 03:29:00,71.3,67.2,29.93,NE,53,3.0,3.0,87,0.00,,,0.00,VWS V14.01,2013-11-06 13:29:00,
2013-11-06 03:34:00,71.1,67.4,29.94,NE,52,6.0,7.0,88,0.00,,,0.00,VWS V14.01,2013-11-06 13:34:00,
2013-11-06 03:39:00,70.7,67.0,29.94,NNE,25,5.0,5.0,88,0.00,,,0.00,VWS V14.01,2013-11-06 13:39:00,
2013-11-06 03:44:00,70.6,67.2,29.94,NNE,13,5.0,5.0,89,0.01,,,0.01,VWS V14.01,2013-11-06 13:44:00,
2013-11-06 03:49:00,70.5,67.4,29.94,North,359,5.0,5.0,90,0.02,,,0.02,VWS V14.01,2013-11-06 13:49:00,
2013-11-06 03:54:00,70.5,67.8,29.94,NNE,15,6.0,7.0,91,0.04,,,0.04,VWS V14.01,2013-11-06 13:54:00,
2013-11-06 04:00:00,70.3,67.9,29.94,North,2,7.0,7.0,92,0.04,,,0.04,VWS V14.01,2013-11-06 14:00:00,
2013-11-06 04:05:00,70.2,67.8,29.94,NW,305,5.0,6.0,92,0.04,,,0.04,VWS V14.01,2013-11-06 14:05:00,
2013-11-06 04:10:00,70.3,67.9,29.94,North,9,6.0,8.0,92,0.04,,,0.04,VWS V14.01,2013-11-06 14:10:00,
2013-11-06 04:15:00,70.5,68.1,29.94,NNE,23,5.0,5.0,92,0.04,,,0.04,VWS V14.01,2013-11-06 14:15:00,
2013-11-06 04:20:00,70.5,68.1,29.94,NNE,17,0.0,1.0,92,0.04,,,0.04,VWS V14.01,2013-11-06 14:20:00,
2013-11-06 04:25:00,70.6,68.2,29.94,North,4,4.0,6.0,92,0.04,,,0.04,VWS V14.01,2013-11-06 14:25:00,
2013-11-06 04:30:00,70.5,68.1,29.94,NNE,20,4.0,4.0,92,0.04,,,0.04,VWS V14.01,2013-11-06 14:30:00,
2013-11-06 04:35:00,70.6,68.2,29.94,NNE,21,4.0,5.0,92,0.04,,,0.04,VWS V14.01,2013-11-06 14:35:00,
2013-11-06 04:40:00,70.8,68.4,29.94,North,9,4.0,4.0,92,0.04,,,0.04,VWS V14.01,2013-11-06 14:40:00,
2013-11-06 04:46:00,70.5,68.1,29.94,NNE,21,3.0,4.0,92,0.03,,,0.04,VWS V14.01,2013-11-06 14:46:00,
2013-11-06 04:51:00,70.4,68.0,29.94,NW,324,4.0,5.0,92,0.03,,,0.04,VWS V14.01,2013-11-06 14:51:00,
2013-11-06 04:56:00,70.4,68.0,29.94,North,11,6.0,6.0,92,0.01,,,0.04,VWS V14.01,2013-11-06 14:56:00,
2013-11-06 05:01:00,70.3,67.6,29.94,North,3,4.0,5.0,91,0.01,,,0.04,VWS V14.01,2013-11-06 15:01:00,
2013-11-06 05:06:00,70.2,67.4,29.94,NNE,21,5.0,5.0,91,0.00,,,0.04,VWS V14.01,2013-11-06 15:06:00,
2013-11-06 05:11:00,70.1,67.4,29.94,NNE,17,4.0,4.0,91,0.00,,,0.04,VWS V14.01,2013-11-06 15:11:00,
2013-11-06 05:17:00,69.7,67.0,29.94,North,353,5.0,5.0,91,0.00,,,0.04,VWS V14.01,2013-11-06 15:17:00,
2013-11-06 05:22:00,69.7,66.6,29.94,NNE,12,4.0,4.0,90,0.00,,,0.04,VWS V14.01,2013-11-06 15:22:00,
2013-11-06 05:27:00,69.6,66.5,29.94,NNE,13,5.0,5.0,90,0.00,,,0.04,VWS V14.01,2013-11-06 15:27:00,
2013-11-06 05:32:00,69.5,66.1,29.94,NNW,338,6.0,6.0,89,0.00,,,0.04,VWS V14.01,2013-11-06 15:32:00,
2013-11-06 05:37:00,69.4,65.7,29.95,North,3,4.0,6.0,88,0.00,,,0.04,VWS V14.01,2013-11-06 15:37:00,
2013-11-06 05:42:00,69.1,65.4,29.95,NNE,14,5.0,5.0,88,0.00,,,0.04,VWS V14.01,2013-11-06 15:42:00,
2013-11-06 05:47:00,68.9,65.2,29.95,North,7,5.0,5.0,88,0.00,,,0.04,VWS V14.01,2013-11-06 15:47:00,
2013-11-06 05:52:00,69.3,65.3,29.95,NNE,21,6.0,8.0,87,0.00,,,0.04,VWS V14.01,2013-11-06 15:52:00,
2013-11-06 05:58:00,69.9,65.5,29.95,NW,325,6.0,7.0,86,0.00,,,0.04,VWS V14.01,2013-11-06 15:58:00,
2013-11-06 06:03:00,70.6,65.5,29.95,NW,326,4.0,5.0,84,0.00,,,0.04,VWS V14.01,2013-11-06 16:03:00,
2013-11-06 06:08:00,70.9,65.5,29.95,NNW,336,4.0,5.0,83,0.00,,,0.04,VWS V14.01,2013-11-06 16:08:00,
2013-11-06 06:13:00,70.6,65.5,29.95,North,359,8.0,8.0,84,0.00,,,0.04,VWS V14.01,2013-11-06 16:13:00,
2013-11-06 06:18:00,70.7,65.3,29.95,NNW,331,6.0,6.0,83,0.00,,,0.04,VWS V14.01,2013-11-06 16:18:00,
2013-11-06 06:23:00,70.6,65.5,29.95,NNE,18,5.0,5.0,84,0.00,,,0.04,VWS V14.01,2013-11-06 16:23:00,
2013-11-06 06:28:00,70.1,65.7,29.95,North,9,7.0,7.0,86,0.00,,,0.04,VWS V14.01,2013-11-06 16:28:00,
2013-11-06 06:33:00,70.7,66.0,29.96,North,360,5.0,5.0,85,0.00,,,0.04,VWS V14.01,2013-11-06 16:33:00,
2013-11-06 06:38:00,71.5,66.1,29.96,North,353,4.0,4.0,83,0.00,,,0.04,VWS V14.01,2013-11-06 16:38:00,
2013-11-06 06:44:00,71.4,66.3,29.96,NNE,13,4.0,4.0,84,0.00,,,0.04,VWS V14.01,2013-11-06 16:44:00,
2013-11-06 06:49:00,71.5,66.1,29.96,NNE,12,2.0,2.0,83,0.00,,,0.04,VWS V14.01,2013-11-06 16:49:00,
2013-11-06 06:54:00,71.6,66.5,29.96,NNE,18,5.0,5.0,84,0.00,,,0.04,VWS V14.01,2013-11-06 16:54:00,
2013-11-06 06:59:00,71.8,66.7,29.96,NNE,26,3.0,3.0,84,0.00,,,0.04,VWS V14.01,2013-11-06 16:59:00,
2013-11-06 07:04:00,72.2,67.1,29.96,ENE,59,6.0,8.0,84,0.00,,,0.04,VWS V14.01,2013-11-06 17:04:00,
2013-11-06 07:09:00,72.7,66.9,29.96,NNE,20,2.0,2.0,82,0.00,,,0.04,VWS V14.01,2013-11-06 17:09:00,
2013-11-06 07:14:00,73.0,67.2,29.96,NE,35,2.0,2.0,82,0.00,,,0.04,VWS V14.01,2013-11-06 17:14:00,
2013-11-06 07:19:00,73.2,67.7,29.97,NE,52,5.0,5.0,83,0.00,,,0.04,VWS V14.01,2013-11-06 17:19:00,
2013-11-06 07:24:00,73.3,67.8,29.97,NNE,32,3.0,4.0,83,0.00,,,0.04,VWS V14.01,2013-11-06 17:24:00,
2013-11-06 07:29:00,73.5,67.7,29.97,NE,54,3.0,6.0,82,0.00,,,0.04,VWS V14.01,2013-11-06 17:29:00,
2013-11-06 07:35:00,73.6,67.8,29.97,ENE,73,5.0,5.0,82,0.00,,,0.04,VWS V14.01,2013-11-06 17:35:00,
2013-11-06 07:40:00,73.9,68.1,29.97,NE,51,2.0,2.0,82,0.00,,,0.04,VWS V14.01,2013-11-06 17:40:00,
2013-11-06 07:45:00,74.1,68.3,29.97,East,90,4.0,4.0,82,0.00,,,0.04,VWS V14.01,2013-11-06 17:45:00,
2013-11-06 07:50:00,74.2,68.4,29.98,ENE,71,5.0,5.0,82,0.00,,,0.04,VWS V14.01,2013-11-06 17:50:00,
2013-11-06 07:55:00,74.3,68.1,29.98,NE,47,4.0,4.0,81,0.00,,,0.04,VWS V14.01,2013-11-06 17:55:00,
2013-11-06 08:00:00,74.2,68.4,29.98,NE,39,5.0,7.0,82,0.00,,,0.04,VWS V14.01,2013-11-06 18:00:00,
2013-11-06 08:05:00,74.1,68.6,29.98,ENE,60,4.0,5.0,83,0.00,,,0.04,VWS V14.01,2013-11-06 18:05:00,
2013-11-06 08:10:00,74.1,69.0,29.98,ENE,57,4.0,4.0,84,0.00,,,0.04,VWS V14.01,2013-11-06 18:10:00,
2013-11-06 08:16:00,74.3,69.2,29.98,ENE,59,4.0,4.0,84,0.00,,,0.04,VWS V14.01,2013-11-06 18:16:00,
2013-11-06 08:21:00,74.4,69.3,29.98,ENE,58,5.0,6.0,84,0.00,,,0.04,VWS V14.01,2013-11-06 18:21:00,
2013-11-06 08:26:00,74.4,69.3,29.98,ENE,66,3.0,4.0,84,0.00,,,0.04,VWS V14.01,2013-11-06 18:26:00,
2013-11-06 08:31:00,74.6,69.4,29.97,East,91,5.0,5.0,84,0.00,,,0.04,VWS V14.01,2013-11-06 18:31:00,
2013-11-06 08:36:00,74.6,69.1,29.98,ESE,102,7.0,8.0,83,0.00,,,0.04,VWS V14.01,2013-11-06 18:36:00,
2013-11-06 08:41:00,74.8,69.3,29.98,East,100,7.0,8.0,83,0.00,,,0.04,VWS V14.01,2013-11-06 18:41:00,
2013-11-06 08:46:00,75.1,68.9,29.98,East,100,6.0,6.0,81,0.00,,,0.04,VWS V14.01,2013-11-06 18:46:00,
2013-11-06 08:51:00,75.2,69.3,29.98,ENE,61,7.0,8.0,82,0.00,,,0.04,VWS V14.01,2013-11-06 18:51:00,
2013-11-06 08:56:00,75.5,69.6,29.98,East,101,9.0,9.0,82,0.00,,,0.04,VWS V14.01,2013-11-06 18:56:00,
2013-11-06 09:01:00,75.4,68.8,29.98,East,90,6.0,6.0,80,0.00,,,0.04,VWS V14.01,2013-11-06 19:01:00,
2013-11-06 09:06:00,75.4,68.8,29.98,East,85,8.0,9.0,80,0.00,,,0.04,VWS V14.01,2013-11-06 19:06:00,
2013-11-06 09:11:00,75.6,68.3,29.98,East,82,4.0,5.0,78,0.00,,,0.04,VWS V14.01,2013-11-06 19:11:00,
2013-11-06 09:17:00,75.7,68.7,29.98,NE,48,6.0,6.0,79,0.00,,,0.04,VWS V14.01,2013-11-06 19:17:00,
2013-11-06 09:22:00,75.9,68.9,29.98,East,101,7.0,8.0,79,0.00,,,0.04,VWS V14.01,2013-11-06 19:22:00,
2013-11-06 09:27:00,76.1,69.1,29.98,ENE,71,6.0,10.0,79,0.00,,,0.04,VWS V14.01,2013-11-06 19:27:00,
2013-11-06 09:32:00,76.2,68.5,29.98,ESE,114,6.0,9.0,77,0.00,,,0.04,VWS V14.01,2013-11-06 19:32:00,
2013-11-06 09:37:00,76.2,67.7,29.98,ESE,102,6.0,7.0,75,0.00,,,0.04,VWS V14.01,2013-11-06 19:37:00,
2013-11-06 09:42:00,76.2,67.7,29.98,ENE,78,4.0,4.0,75,0.00,,,0.04,VWS V14.01,2013-11-06 19:42:00,
2013-11-06 09:47:00,76.7,68.9,29.97,East,85,3.0,4.0,77,0.00,,,0.04,VWS V14.01,2013-11-06 19:47:00,
2013-11-06 09:52:00,76.7,67.4,29.97,ENE,77,8.0,8.0,73,0.00,,,0.04,VWS V14.01,2013-11-06 19:52:00,
2013-11-06 09:57:00,76.9,67.2,29.97,East,85,4.0,7.0,72,0.00,,,0.04,VWS V14.01,2013-11-06 19:57:00,
2013-11-06 10:03:00,77.1,68.6,29.97,ESE,104,5.0,5.0,75,0.00,,,0.04,VWS V14.01,2013-11-06 20:03:00,
2013-11-06 10:08:00,76.9,67.2,29.96,ESE,109,6.0,7.0,72,0.00,,,0.04,VWS V14.01,2013-11-06 20:08:00,
2013-11-06 10:13:00,76.9,66.8,29.96,East,79,5.0,8.0,71,0.00,,,0.04,VWS V14.01,2013-11-06 20:13:00,
2013-11-06 10:18:00,77.4,66.9,29.96,ESE,116,8.0,9.0,70,0.00,,,0.04,VWS V14.01,2013-11-06 20:18:00,
2013-11-06 10:23:00,77.7,67.6,29.96,East,83,8.0,8.0,71,0.00,,,0.04,VWS V14.01,2013-11-06 20:23:00,
2013-11-06 10:28:00,77.8,66.0,29.96,ESE,104,9.0,11.0,67,0.00,,,0.04,VWS V14.01,2013-11-06 20:28:00,
2013-11-06 10:33:00,77.7,66.7,29.96,ESE,118,6.0,6.0,69,0.00,,,0.04,VWS V14.01,2013-11-06 20:33:00,
2013-11-06 10:38:00,78.6,66.3,29.95,ESE,109,10.0,10.0,66,0.00,,,0.04,VWS V14.01,2013-11-06 20:38:00,
2013-11-06 10:43:00,78.4,67.4,29.95,ESE,104,13.0,14.0,69,0.00,,,0.04,VWS V14.01,2013-11-06 20:43:00,
2013-11-06 10:48:00,78.3,67.3,29.95,ESE,102,8.0,8.0,69,0.00,,,0.04,VWS V14.01,2013-11-06 20:48:00,
2013-11-06 10:53:00,78.2,66.8,29.94,ESE,102,8.0,11.0,68,0.00,,,0.04,VWS V14.01,2013-11-06 20:53:00,
2013-11-06 10:58:00,78.3,68.1,29.94,East,82,7.0,9.0,71,0.00,,,0.04,VWS V14.01,2013-11-06 20:58:00,
2013-11-06 11:04:00,78.5,67.9,29.94,ESE,111,12.0,15.0,70,0.00,,,0.04,VWS V14.01,2013-11-06 21:04:00,
2013-11-06 11:09:00,78.2,68.0,29.94,ESE,104,9.0,10.0,71,0.00,,,0.04,VWS V14.01,2013-11-06 21:09:00,
2013-11-06 11:14:00,77.7,68.8,29.93,East,99,5.0,6.0,74,0.00,,,0.04,VWS V14.01,2013-11-06 21:14:00,
2013-11-06 11:19:00,77.2,67.9,29.93,East,94,13.0,16.0,73,0.00,,,0.04,VWS V14.01,2013-11-06 21:19:00,
2013-11-06 11:24:00,77.2,69.1,29.93,East,100,9.0,11.0,76,0.00,,,0.04,VWS V14.01,2013-11-06 21:24:00,
2013-11-06 11:29:00,77.3,68.4,29.93,ESE,103,13.0,13.0,74,0.00,,,0.04,VWS V14.01,2013-11-06 21:29:00,
2013-11-06 11:34:00,77.6,68.3,29.92,ESE,104,8.0,11.0,73,0.00,,,0.04,VWS V14.01,2013-11-06 21:34:00,
2013-11-06 11:39:00,77.8,68.5,29.92,ESE,118,13.0,13.0,73,0.00,,,0.04,VWS V14.01,2013-11-06 21:39:00,
2013-11-06 11:44:00,77.9,67.8,29.92,NE,51,7.0,8.0,71,0.00,,,0.04,VWS V14.01,2013-11-06 21:44:00,
2013-11-06 11:49:00,78.1,68.8,29.92,ENE,68,9.0,9.0,73,0.00,,,0.04,VWS V14.01,2013-11-06 21:49:00,
2013-11-06 11:55:00,77.9,68.6,29.92,ESE,115,13.0,13.0,73,0.00,,,0.04,VWS V14.01,2013-11-06 21:55:00,
2013-11-06 12:00:00,77.7,68.4,29.92,ESE,110,13.0,13.0,73,0.00,,,0.04,VWS V14.01,2013-11-06 22:00:00,
2013-11-06 12:05:00,77.8,69.2,29.92,ENE,60,7.0,12.0,75,0.00,,,0.04,VWS V14.01,2013-11-06 22:05:00,
2013-11-06 12:10:00,77.9,68.2,29.92,ESE,104,8.0,8.0,72,0.00,,,0.04,VWS V14.01,2013-11-06 22:10:00,
2013-11-06 12:15:00,78.1,67.9,29.92,ESE,111,16.0,16.0,71,0.00,,,0.04,VWS V14.01,2013-11-06 22:15:00,
2013-11-06 12:20:00,78.4,68.6,29.92,NNE,28,9.0,12.0,72,0.00,,,0.04,VWS V14.01,2013-11-06 22:20:00,
2013-11-06 12:25:00,78.3,68.9,29.92,East,95,11.0,13.0,73,0.00,,,0.04,VWS V14.01,2013-11-06 22:25:00,
2013-11-06 12:30:00,78.3,68.9,29.92,ENE,70,8.0,10.0,73,0.00,,,0.04,VWS V14.01,2013-11-06 22:30:00,
2013-11-06 12:35:00,77.8,68.9,29.91,ESE,104,10.0,11.0,74,0.00,,,0.04,VWS V14.01,2013-11-06 22:35:00,
2013-11-06 12:40:00,77.2,67.9,29.91,ENE,78,9.0,12.0,73,0.00,,,0.04,VWS V14.01,2013-11-06 22:40:00,
2013-11-06 12:45:00,77.7,69.2,29.91,East,100,13.0,13.0,75,0.00,,,0.04,VWS V14.01,2013-11-06 22:45:00,
2013-11-06 12:50:00,77.7,68.4,29.91,ENE,57,11.0,12.0,73,0.00,,,0.04,VWS V14.01,2013-11-06 22:50:00,
2013-11-06 12:55:00,78.2,68.8,29.90,East,96,10.0,15.0,73,0.00,,,0.04,VWS V14.01,2013-11-06 22:55:00,
2013-11-06 13:00:00,78.0,69.1,29.90,NE,48,12.0,12.0,74,0.00,,,0.04,VWS V14.01,2013-11-06 23:00:00,
2013-11-06 13:06:00,77.8,68.5,29.90,ESE,105,12.0,15.0,73,0.00,,,0.04,VWS V14.01,2013-11-06 23:06:00,
2013-11-06 13:11:00,77.7,68.0,29.90,NE,51,9.0,12.0,72,0.00,,,0.04,VWS V14.01,2013-11-06 23:11:00,
2013-11-06 13:16:00,78.1,67.9,29.89,East,95,9.0,12.0,71,0.00,,,0.04,VWS V14.01,2013-11-06 23:16:00,
2013-11-06 13:21:00,77.9,68.6,29.89,East,91,15.0,15.0,73,0.00,,,0.04,VWS V14.01,2013-11-06 23:21:00,
2013-11-06 13:26:00,78.0,68.7,29.89,ESE,111,17.0,17.0,73,0.00,,,0.04,VWS V14.01,2013-11-06 23:26:00,
2013-11-06 13:31:00,77.8,68.9,29.89,ESE,113,14.0,15.0,74,0.00,,,0.04,VWS V14.01,2013-11-06 23:31:00,
2013-11-06 13:36:00,77.4,68.5,29.89,NNE,32,5.0,7.0,74,0.00,,,0.04,VWS V14.01,2013-11-06 23:36:00,
2013-11-06 13:41:00,77.9,68.9,29.89,ESE,104,14.0,15.0,74,0.00,,,0.04,VWS V14.01,2013-11-06 23:41:00,
2013-11-06 13:46:00,78.3,68.9,29.88,ENE,64,11.0,13.0,73,0.00,,,0.04,VWS V14.01,2013-11-06 23:46:00,
2013-11-06 13:51:00,77.6,67.9,29.88,ENE,77,9.0,9.0,72,0.00,,,0.04,VWS V14.01,2013-11-06 23:51:00,
2013-11-06 13:57:00,77.8,68.9,29.88,ENE,63,11.0,12.0,74,0.00,,,0.04,VWS V14.01,2013-11-06 23:57:00,
2013-11-06 14:02:00,77.7,69.5,29.88,ESE,102,13.0,13.0,76,0.00,,,0.04,VWS V14.01,2013-11-07 00:02:00,
2013-11-06 14:07:00,77.8,69.2,29.88,East,95,12.0,15.0,75,0.00,,,0.04,VWS V14.01,2013-11-07 00:07:00,
2013-11-06 14:12:00,77.7,69.9,29.88,ENE,75,10.0,14.0,77,0.00,,,0.04,VWS V14.01,2013-11-07 00:12:00,
2013-11-06 14:17:00,77.6,69.1,29.88,ENE,63,6.0,8.0,75,0.00,,,0.04,VWS V14.01,2013-11-07 00:17:00,
2013-11-06 14:22:00,77.1,69.0,29.88,East,99,8.0,10.0,76,0.00,,,0.04,VWS V14.01,2013-11-07 00:22:00,
2013-11-06 14:27:00,76.6,68.5,29.87,ENE,77,8.0,10.0,76,0.00,,,0.04,VWS V14.01,2013-11-07 00:27:00,
2013-11-06 14:32:00,75.9,68.2,29.87,ENE,68,8.0,10.0,77,0.00,,,0.04,VWS V14.01,2013-11-07 00:32:00,
2013-11-06 14:37:00,76.2,68.5,29.87,ENE,61,7.0,8.0,77,0.00,,,0.04,VWS V14.01,2013-11-07 00:37:00,
2013-11-06 14:43:00,75.9,67.8,29.87,ENE,68,6.0,8.0,76,0.00,,,0.04,VWS V14.01,2013-11-07 00:43:00,
2013-11-06 14:48:00,75.8,68.5,29.87,ENE,68,7.0,8.0,78,0.00,,,0.04,VWS V14.01,2013-11-07 00:48:00,
2013-11-06 14:53:00,75.7,68.4,29.87,ENE,74,7.0,8.0,78,0.00,,,0.04,VWS V14.01,2013-11-07 00:53:00,
2013-11-06 14:58:00,75.8,68.1,29.87,ESE,110,8.0,10.0,77,0.00,,,0.04,VWS V14.01,2013-11-07 00:58:00,
2013-11-06 15:03:00,75.7,67.6,29.87,East,90,4.0,6.0,76,0.00,,,0.04,VWS V14.01,2013-11-07 01:03:00,
2013-11-06 15:08:00,75.6,68.3,29.87,ENE,71,8.0,9.0,78,0.00,,,0.04,VWS V14.01,2013-11-07 01:08:00,
2013-11-06 15:13:00,75.5,68.5,29.87,ESE,103,10.0,12.0,79,0.00,,,0.04,VWS V14.01,2013-11-07 01:13:00,
2013-11-06 15:18:00,75.3,68.3,29.87,ENE,69,8.0,9.0,79,0.00,,,0.04,VWS V14.01,2013-11-07 01:18:00,
2013-11-06 15:24:00,75.3,69.1,29.87,ENE,65,10.0,10.0,81,0.00,,,0.04,VWS V14.01,2013-11-07 01:24:00,
2013-11-06 15:29:00,74.9,68.3,29.87,NE,56,6.0,6.0,80,0.00,,,0.04,VWS V14.01,2013-11-07 01:29:00,
2013-11-06 15:34:00,74.8,68.9,29.87,NE,55,9.0,13.0,82,0.00,,,0.04,VWS V14.01,2013-11-07 01:34:00,
2013-11-06 15:39:00,74.7,68.8,29.87,NE,53,8.0,8.0,82,0.00,,,0.04,VWS V14.01,2013-11-07 01:39:00,
2013-11-06 15:44:00,74.6,68.4,29.87,NE,45,5.0,5.0,81,0.00,,,0.04,VWS V14.01,2013-11-07 01:44:00,
2013-11-06 15:49:00,74.6,68.0,29.87,ENE,57,4.0,4.0,80,0.00,,,0.04,VWS V14.01,2013-11-07 01:49:00,
2013-11-06 15:54:00,74.6,68.0,29.88,NE,40,7.0,9.0,80,0.00,,,0.04,VWS V14.01,2013-11-07 01:54:00,
2013-11-06 15:59:00,74.6,68.0,29.88,NE,38,6.0,6.0,80,0.00,,,0.04,VWS V14.01,2013-11-07 01:59:00,
2013-11-06 16:04:00,74.5,67.9,29.88,East,90,7.0,8.0,80,0.00,,,0.04,VWS V14.01,2013-11-07 02:04:00,
2013-11-06 16:09:00,74.6,68.8,29.88,NE,54,4.0,6.0,82,0.00,,,0.04,VWS V14.01,2013-11-07 02:09:00,
2013-11-06 16:15:00,74.5,68.7,29.88,East,98,8.0,8.0,82,0.00,,,0.04,VWS V14.01,2013-11-07 02:15:00,
2013-11-06 16:20:00,74.4,68.6,29.88,ENE,76,7.0,9.0,82,0.00,,,0.04,VWS V14.01,2013-11-07 02:20:00,
2013-11-06 16:25:00,74.4,68.6,29.88,ENE,66,8.0,10.0,82,0.00,,,0.04,VWS V14.01,2013-11-07 02:25:00,
2013-11-06 16:30:00,74.3,68.8,29.88,ENE,65,6.0,6.0,83,0.00,,,0.04,VWS V14.01,2013-11-07 02:30:00,
2013-11-06 16:35:00,74.1,68.3,29.88,NE,53,8.0,9.0,82,0.00,,,0.04,VWS V14.01,2013-11-07 02:35:00,
2013-11-06 16:40:00,74.1,68.3,29.88,NE,52,5.0,6.0,82,0.00,,,0.04,VWS V14.01,2013-11-07 02:40:00,
2013-11-06 16:45:00,74.1,68.6,29.88,NE,41,6.0,7.0,83,0.00,,,0.04,VWS V14.01,2013-11-07 02:45:00,
2013-11-06 16:50:00,74.1,68.6,29.88,ENE,72,2.0,4.0,83,0.00,,,0.04,VWS V14.01,2013-11-07 02:50:00,
2013-11-06 16:56:00,74.2,69.4,29.88,ENE,76,6.0,7.0,85,0.00,,,0.04,VWS V14.01,2013-11-07 02:56:00,
2013-11-06 17:01:00,74.1,69.7,29.88,ENE,66,6.0,7.0,86,0.00,,,0.04,VWS V14.01,2013-11-07 03:01:00,
2013-11-06 17:06:00,74.0,69.6,29.88,ENE,59,8.0,9.0,86,0.00,,,0.04,VWS V14.01,2013-11-07 03:06:00,
2013-11-06 17:11:00,73.8,69.3,29.88,NE,54,5.0,5.0,86,0.00,,,0.04,VWS V14.01,2013-11-07 03:11:00,
2013-11-06 17:16:00,73.7,69.6,29.88,ENE,69,2.0,4.0,87,0.00,,,0.04,VWS V14.01,2013-11-07 03:16:00,
2013-11-06 17:21:00,73.5,69.4,29.88,ENE,69,4.0,4.0,87,0.00,,,0.04,VWS V14.01,2013-11-07 03:21:00,
2013-11-06 17:26:00,73.4,69.3,29.88,ENE,73,5.0,5.0,87,0.00,,,0.04,VWS V14.01,2013-11-07 03:26:00,
2013-11-06 17:31:00,73.3,69.2,29.88,East,90,4.0,5.0,87,0.00,,,0.04,VWS V14.01,2013-11-07 03:31:00,
2013-11-06 17:36:00,73.2,69.1,29.88,ENE,65,4.0,5.0,87,0.00,,,0.04,VWS V14.01,2013-11-07 03:36:00,
2013-11-06 17:41:00,73.1,69.3,29.88,NE,56,3.0,3.0,88,0.00,,,0.04,VWS V14.01,2013-11-07 03:41:00,
2013-11-06 17:46:00,73.0,69.2,29.88,ENE,57,3.0,3.0,88,0.00,,,0.04,VWS V14.01,2013-11-07 03:46:00,
2013-11-06 17:52:00,72.9,69.1,29.89,NE,45,3.0,4.0,88,0.00,,,0.04,VWS V14.01,2013-11-07 03:52:00,
2013-11-06 17:57:00,72.9,69.1,29.89,East,85,4.0,5.0,88,0.00,,,0.04,VWS V14.01,2013-11-07 03:57:00,
2013-11-06 18:02:00,72.9,69.1,29.89,ENE,59,5.0,5.0,88,0.00,,,0.04,VWS V14.01,2013-11-07 04:02:00,
2013-11-06 18:07:00,72.8,68.7,29.89,NE,52,5.0,6.0,87,0.00,,,0.04,VWS V14.01,2013-11-07 04:07:00,
2013-11-06 18:12:00,72.7,68.6,29.89,NNE,19,4.0,4.0,87,0.00,,,0.04,VWS V14.01,2013-11-07 04:12:00,
2013-11-06 18:17:00,72.7,68.6,29.89,NNE,13,4.0,4.0,87,0.00,,,0.04,VWS V14.01,2013-11-07 04:17:00,
2013-11-06 18:22:00,72.7,68.6,29.90,NNE,19,1.0,5.0,87,0.00,,,0.04,VWS V14.01,2013-11-07 04:22:00,
2013-11-06 18:27:00,72.7,68.6,29.90,NNE,23,6.0,6.0,87,0.00,,,0.04,VWS V14.01,2013-11-07 04:27:00,
2013-11-06 18:32:00,72.7,68.3,29.90,NE,35,3.0,3.0,86,0.00,,,0.04,VWS V14.01,2013-11-07 04:32:00,
2013-11-06 18:38:00,72.5,68.1,29.90,NNE,19,3.0,5.0,86,0.00,,,0.04,VWS V14.01,2013-11-07 04:38:00,
2013-11-06 18:43:00,72.5,68.1,29.90,ENE,64,7.0,7.0,86,0.00,,,0.04,VWS V14.01,2013-11-07 04:43:00,
2013-11-06 18:48:00,72.1,67.3,29.90,NNW,347,3.0,5.0,85,0.00,,,0.04,VWS V14.01,2013-11-07 04:48:00,
2013-11-06 18:53:00,72.3,67.5,29.90,NE,38,3.0,3.0,85,0.00,,,0.04,VWS V14.01,2013-11-07 04:53:00,
2013-11-06 18:58:00,72.3,67.2,29.90,NNE,16,4.0,4.0,84,0.00,,,0.04,VWS V14.01,2013-11-07 04:58:00,
2013-11-06 19:01:00,72.2,67.1,29.90,NE,51,6.0,6.0,84,0.00,,,0.04,VWS V14.01,2013-11-07 05:01:00,
2013-11-06 19:02:00,72.2,67.1,29.90,NE,47,5.0,6.0,84,0.00,,,0.04,VWS V14.01,2013-11-07 05:02:00,
2013-11-06 19:04:00,72.3,67.2,29.91,NNE,24,4.0,6.0,84,0.00,,,0.04,VWS V14.01,2013-11-07 05:04:00,
2013-11-06 19:06:00,72.3,67.2,29.91,NE,45,5.0,5.0,84,0.00,,,0.04,VWS V14.01,2013-11-07 05:06:00,
2013-11-06 19:11:00,72.4,67.6,29.91,NNE,33,2.0,2.0,85,0.00,,,0.04,VWS V14.01,2013-11-07 05:11:00,
2013-11-06 19:16:00,72.3,67.2,29.91,NNE,22,3.0,3.0,84,0.00,,,0.04,VWS V14.01,2013-11-07 05:16:00,
2013-11-06 19:21:00,72.0,66.9,29.91,NNE,32,4.0,4.0,84,0.00,,,0.04,VWS V14.01,2013-11-07 05:21:00,
2013-11-06 19:26:00,72.0,66.9,29.92,NE,35,2.0,2.0,84,0.00,,,0.04,VWS V14.01,2013-11-07 05:26:00,
2013-11-06 19:31:00,71.7,66.6,29.92,North,3,3.0,3.0,84,0.00,,,0.04,VWS V14.01,2013-11-07 05:31:00,
2013-11-06 19:36:00,71.9,65.8,29.92,North,1,3.0,5.0,81,0.00,,,0.04,VWS V14.01,2013-11-07 05:36:00,
2013-11-06 19:41:00,72.6,65.3,29.92,NE,40,2.0,3.0,78,0.00,,,0.04,VWS V14.01,2013-11-07 05:41:00,
2013-11-06 19:46:00,72.7,65.8,29.92,NE,52,3.0,3.0,79,0.00,,,0.04,VWS V14.01,2013-11-07 05:46:00,
2013-11-06 19:51:00,72.5,65.3,29.93,NNE,31,7.0,9.0,78,0.00,,,0.04,VWS V14.01,2013-11-07 05:51:00,
2013-11-06 19:57:00,72.7,65.8,29.93,NNE,20,6.0,8.0,79,0.00,,,0.04,VWS V14.01,2013-11-07 05:57:00,
2013-11-06 20:02:00,73.0,65.7,29.93,NE,43,2.0,3.0,78,0.00,,,0.04,VWS V14.01,2013-11-07 06:02:00,
2013-11-06 20:07:00,73.0,65.7,29.93,ENE,61,3.0,4.0,78,0.00,,,0.04,VWS V14.01,2013-11-07 06:07:00,
2013-11-06 20:12:00,72.8,65.6,29.93,North,3,5.0,5.0,78,0.00,,,0.04,VWS V14.01,2013-11-07 06:12:00,
2013-11-06 20:17:00,72.6,65.7,29.94,North,8,3.0,3.0,79,0.00,,,0.04,VWS V14.01,2013-11-07 06:17:00,
2013-11-06 20:22:00,72.8,65.9,29.94,North,5,4.0,6.0,79,0.00,,,0.04,VWS V14.01,2013-11-07 06:22:00,
2013-11-06 20:27:00,72.6,65.7,29.94,NNE,26,3.0,3.0,79,0.00,,,0.04,VWS V14.01,2013-11-07 06:27:00,
2013-11-06 20:32:00,72.8,65.9,29.94,NE,45,5.0,5.0,79,0.00,,,0.04,VWS V14.01,2013-11-07 06:32:00,
2013-11-06 20:38:00,72.9,66.4,29.94,NNE,15,5.0,6.0,80,0.00,,,0.04,VWS V14.01,2013-11-07 06:38:00,
2013-11-06 20:43:00,73.0,66.1,29.94,NE,35,5.0,5.0,79,0.00,,,0.04,VWS V14.01,2013-11-07 06:43:00,
2013-11-06 20:48:00,73.0,66.5,29.94,North,10,5.0,7.0,80,0.00,,,0.04,VWS V14.01,2013-11-07 06:48:00,
2013-11-06 20:53:00,73.1,66.6,29.94,NNE,31,6.0,8.0,80,0.00,,,0.04,VWS V14.01,2013-11-07 06:53:00,
2013-11-06 20:58:00,73.1,66.2,29.94,NNW,330,6.0,6.0,79,0.00,,,0.04,VWS V14.01,2013-11-07 06:58:00,
2013-11-06 21:03:00,73.1,66.2,29.94,NNE,18,6.0,6.0,79,0.00,,,0.04,VWS V14.01,2013-11-07 07:03:00,
2013-11-06 21:08:00,72.9,66.0,29.94,NNW,334,7.0,7.0,79,0.00,,,0.04,VWS V14.01,2013-11-07 07:08:00,
2013-11-06 21:13:00,73.0,66.1,29.94,NNE,16,3.0,3.0,79,0.00,,,0.04,VWS V14.01,2013-11-07 07:13:00,
2013-11-06 21:18:00,72.9,65.7,29.94,North,4,12.0,12.0,78,0.00,,,0.04,VWS V14.01,2013-11-07 07:18:00,
2013-11-06 21:23:00,73.2,65.9,29.94,NE,47,6.0,6.0,78,0.00,,,0.04,VWS V14.01,2013-11-07 07:23:00,
2013-11-06 21:29:00,73.2,65.9,29.94,NW,322,12.0,12.0,78,0.00,,,0.04,VWS V14.01,2013-11-07 07:29:00,
2013-11-06 21:34:00,73.3,65.7,29.94,North,350,9.0,10.0,77,0.00,,,0.04,VWS V14.01,2013-11-07 07:34:00,
2013-11-06 21:39:00,73.5,65.5,29.93,NNE,15,7.0,7.0,76,0.00,,,0.04,VWS V14.01,2013-11-07 07:39:00,
2013-11-06 21:44:00,73.7,65.7,29.93,NNW,329,9.0,15.0,76,0.00,,,0.04,VWS V14.01,2013-11-07 07:44:00,
2013-11-06 21:49:00,73.7,65.7,29.94,NE,56,2.0,2.0,76,0.00,,,0.04,VWS V14.01,2013-11-07 07:49:00,
2013-11-06 21:54:00,73.2,65.2,29.94,NNW,327,8.0,8.0,76,0.00,,,0.04,VWS V14.01,2013-11-07 07:54:00,
2013-11-06 21:59:00,73.3,65.3,29.94,ENE,57,6.0,8.0,76,0.00,,,0.04,VWS V14.01,2013-11-07 07:59:00,
2013-11-06 22:04:00,73.6,65.6,29.94,ENE,66,3.0,3.0,76,0.00,,,0.04,VWS V14.01,2013-11-07 08:04:00,
2013-11-06 22:09:00,73.6,65.6,29.94,NE,49,9.0,11.0,76,0.00,,,0.04,VWS V14.01,2013-11-07 08:09:00,
2013-11-06 22:15:00,73.6,65.9,29.94,NE,50,5.0,5.0,77,0.00,,,0.04,VWS V14.01,2013-11-07 08:15:00,
2013-11-06 22:20:00,73.4,64.6,29.93,NNE,26,9.0,9.0,74,0.00,,,0.04,VWS V14.01,2013-11-07 08:20:00,
2013-11-06 22:25:00,73.3,64.5,29.93,NE,46,5.0,5.0,74,0.00,,,0.04,VWS V14.01,2013-11-07 08:25:00,
2013-11-06 22:30:00,73.4,65.4,29.94,NNE,23,7.0,7.0,76,0.00,,,0.04,VWS V14.01,2013-11-07 08:30:00,
2013-11-06 22:35:00,73.4,65.4,29.94,North,351,10.0,12.0,76,0.00,,,0.04,VWS V14.01,2013-11-07 08:35:00,
2013-11-06 22:40:00,73.3,65.3,29.94,North,6,3.0,3.0,76,0.00,,,0.04,VWS V14.01,2013-11-07 08:40:00,
2013-11-06 22:45:00,73.0,65.7,29.94,NE,49,0.0,1.0,78,0.00,,,0.04,VWS V14.01,2013-11-07 08:45:00,
2013-11-06 22:50:00,73.2,65.9,29.94,North,4,6.0,6.0,78,0.00,,,0.04,VWS V14.01,2013-11-07 08:50:00,
2013-11-06 22:55:00,73.2,65.9,29.93,ENE,64,6.0,7.0,78,0.00,,,0.04,VWS V14.01,2013-11-07 08:55:00,
2013-11-06 23:00:00,73.2,66.3,29.93,NNE,25,6.0,6.0,79,0.00,,,0.04,VWS V14.01,2013-11-07 09:00:00,
2013-11-06 23:05:00,73.2,66.7,29.93,NE,40,5.0,6.0,80,0.00,,,0.04,VWS V14.01,2013-11-07 09:05:00,
2013-11-06 23:10:00,73.1,66.6,29.93,East,81,6.0,7.0,80,0.00,,,0.04,VWS V14.01,2013-11-07 09:10:00,
2013-11-06 23:15:00,73.1,66.9,29.93,NE,47,6.0,9.0,81,0.00,,,0.04,VWS V14.01,2013-11-07 09:15:00,
2013-11-06 23:20:00,73.2,67.0,29.93,East,79,6.0,6.0,81,0.00,,,0.04,VWS V14.01,2013-11-07 09:20:00,
2013-11-06 23:25:00,73.1,66.6,29.93,NE,50,4.0,4.0,80,0.00,,,0.04,VWS V14.01,2013-11-07 09:25:00,
2013-11-06 23:30:00,73.0,66.8,29.93,ENE,66,2.0,2.0,81,0.00,,,0.04,VWS V14.01,2013-11-07 09:30:00,
2013-11-06 23:36:00,73.1,66.9,29.92,ENE,74,2.0,3.0,81,0.00,,,0.04,VWS V14.01,2013-11-07 09:36:00,
2013-11-06 23:41:00,73.0,66.8,29.93,NE,53,8.0,9.0,81,0.00,,,0.04,VWS V14.01,2013-11-07 09:41:00,
2013-11-06 23:46:00,73.0,66.8,29.92,NNE,12,0.0,3.0,81,0.00,,,0.04,VWS V14.01,2013-11-07 09:46:00,
2013-11-06 23:51:00,73.0,66.8,29.92,ENE,58,10.0,10.0,81,0.00,,,0.04,VWS V14.01,2013-11-07 09:51:00,
2013-11-06 23:56:00,73.0,66.8,29.92,North,2,8.0,9.0,81,0.00,,,0.04,VWS V14.01,2013-11-07 09:56:00,